Kyiv, Ukraine

10:04 PM EEST on October 18, 2019 (GMT +0300)
Zhuliany

Weather History for UKKK - September, 2019

Change the Weather History Date:

Sunday, September 22, 2019

  Actual Average (UKBB) Record (UKBB)
Temperature  
Mean Temperature 58 °F -  
Max Temperature 66 °F 62 °F 86 °F (2017)
Min Temperature 50 °F 43 °F 28 °F (1996)
Degree Days  
Heating Degree Days 7    
Growing Degree Days 8 (Base 50)    
Moisture  
Dew Point 48 °F    
Average Humidity 72    
Maximum Humidity 100    
Minimum Humidity 33    
Precipitation  
Precipitation 0.00 in 0.05 in - ()
Sea Level Pressure  
Sea Level Pressure 29.96 in    
Wind  
Wind Speed 13 mph ()    
Max Wind Speed 18 mph    
Max Gust Speed -    
Visibility 6.5 miles    
Events Rain    
Averages and records for this station are not official NWS values.
T = Trace of Precipitation, MM = Missing Value Source: Averaged Metar Reports

Daily Weather History Graph

Daily Weather History Graph

Search for Another Location

Airport or City:

Astronomy

Sep. 22, 2019 Rise Set
Actual Time 6:43 AM EEST 6:57 PM EEST
Civil Twilight 6:11 AM EEST 7:29 PM EEST
Nautical Twilight 5:32 AM EEST 8:08 PM EEST
Astronomical Twilight 4:52 AM EEST 8:48 PM EEST
Moon 11:29 PM EEST (9/22) 3:11 PM EEST (9/22)
Length of Visible Light 13h 18m
Length of Day
12h 13m
Waning Gibbous, 47% of the Moon is Illuminated
Sep 22
Waning Gibbous
Sep 28
New
Oct 5
First Quarter
Oct 14
Full
Oct 21
Last Quarter

Hourly Weather History & Observations

Time (EEST) Temp. Dew Point Humidity Pressure Visibility Wind Dir Wind Speed Gust Speed Precip Events Conditions
12:00 AM 51 °F 49 °F 89% 30.03 in 2 mi West 8.9 mph - - Rain Drizzle
12:00 AM 51.8 °F 50.0 °F 94% 30.01 in 4.3 mi West 13.4 mph - N/A   Light Drizzle
12:30 AM 51.8 °F 50.0 °F 94% 30.01 in 6.2 mi West 15.7 mph - N/A   Overcast
1:00 AM 53.6 °F 50.0 °F 88% 30.01 in 6.2 mi West 15.7 mph - N/A   Overcast
1:05 AM 53.6 °F 50.0 °F 88% 30.01 in 6.2 mi West 15.7 mph - N/A   Overcast
1:30 AM 51.8 °F 51.8 °F 100% 29.98 in 3.1 mi West 17.9 mph - N/A   Light Drizzle
2:00 AM 53.6 °F 51.8 °F 94% 29.98 in 6.2 mi West 17.9 mph - N/A   Overcast
2:30 AM 53.6 °F 51.8 °F 94% 29.98 in 6.2 mi West 17.9 mph - N/A   Overcast
3:00 AM 53.6 °F 51.8 °F 94% 29.98 in 6.2 mi West 17.9 mph - N/A   Overcast
3:30 AM 53.6 °F 50.0 °F 88% 29.98 in 6.2 mi West 15.7 mph - N/A   Overcast
4:00 AM 55.4 °F 50.0 °F 82% 29.95 in 6.2 mi West 17.9 mph - N/A   Overcast
4:30 AM 55.4 °F 50.0 °F 82% 29.95 in 6.2 mi WNW 15.7 mph - N/A   Overcast
5:00 AM 55.4 °F 50.0 °F 82% 29.95 in 6.2 mi WNW 15.7 mph - N/A   Overcast
5:30 AM 55.4 °F 50.0 °F 82% 29.95 in 6.2 mi WNW 15.7 mph - N/A   Mostly Cloudy
6:00 AM 55 °F 49 °F 74% 29.96 in 6 mi NW 6.7 mph - -   Overcast
6:00 AM 55.4 °F 50.0 °F 82% 29.95 in 6.2 mi West 15.7 mph - N/A   Mostly Cloudy
6:30 AM 53.6 °F 50.0 °F 88% 29.95 in 6.2 mi WNW 15.7 mph - N/A   Overcast
6:41 AM 55.4 °F 50.0 °F 82% 29.95 in 6.2 mi WNW 17.9 mph - N/A   Overcast
6:46 AM 53.6 °F 50.0 °F 88% 29.95 in 6.2 mi WNW 15.7 mph - N/A   Overcast
7:00 AM 53.6 °F 50.0 °F 88% 29.95 in 6.2 mi WNW 15.7 mph - N/A   Overcast
7:30 AM 53.6 °F 50.0 °F 88% 29.98 in 5.6 mi WNW 15.7 mph - N/A   Overcast
8:00 AM 55.4 °F 50.0 °F 82% 29.98 in 6.2 mi WNW 13.4 mph - N/A Rain Light Rain
8:30 AM 55.4 °F 50.0 °F 82% 29.98 in 6.2 mi WNW 15.7 mph - N/A   Overcast
8:32 AM 55.4 °F 50.0 °F 82% 29.98 in 6.2 mi WNW 15.7 mph - N/A   Overcast
9:00 AM 55 °F 49 °F 76% 29.98 in 6 mi NW 11.2 mph - -   Overcast
9:00 AM 53.6 °F 50.0 °F 88% 29.98 in 5.6 mi WNW 15.7 mph - N/A Rain Light Rain
9:30 AM 55.4 °F 50.0 °F 82% 29.98 in 6.2 mi WNW 13.4 mph - N/A   Overcast
10:00 AM 55.4 °F 50.0 °F 82% 29.98 in 6.2 mi WNW 13.4 mph - N/A Rain Light Rain
10:30 AM 57.2 °F 48.2 °F 72% 29.98 in 6.2 mi WNW 13.4 mph - N/A   Overcast
11:00 AM 57.2 °F 48.2 °F 72% 29.98 in 6.2 mi WNW 17.9 mph - N/A   Overcast
11:30 AM 59.0 °F 48.2 °F 67% 29.98 in 6.2 mi WNW 15.7 mph - N/A   Overcast
12:00 PM 58 °F 48 °F 61% 29.98 in 12 mi NW 8.9 mph - -   Overcast
12:00 PM 59.0 °F 48.2 °F 67% 29.98 in 6.2 mi WNW 17.9 mph - N/A   Overcast
12:30 PM 59.0 °F 48.2 °F 67% 29.98 in 6.2 mi WNW 13.4 mph - N/A   Overcast
1:00 PM 60.8 °F 48.2 °F 63% 29.98 in 6.2 mi WNW 13.4 mph - N/A   Mostly Cloudy
1:30 PM 62.6 °F 46.4 °F 55% 29.98 in 6.2 mi NW 15.7 mph - N/A   Mostly Cloudy
2:00 PM 64.4 °F 46.4 °F 52% 29.98 in 6.2 mi NW 15.7 mph - N/A   Mostly Cloudy
2:30 PM 64.4 °F 46.4 °F 52% 29.98 in 6.2 mi WNW 17.9 mph - N/A   Mostly Cloudy
3:00 PM 62 °F 45 °F 42% 29.96 in 12 mi North 6.7 mph - -   Mostly Cloudy
3:00 PM 64.4 °F 46.4 °F 52% 29.95 in 6.2 mi NW 13.4 mph - N/A   Mostly Cloudy
3:30 PM 66.2 °F 44.6 °F 46% 29.95 in - NW 15.7 mph - N/A   Clear
4:00 PM 64.4 °F 42.8 °F 45% 29.95 in - WNW 15.7 mph - N/A   Clear
4:30 PM 66.2 °F 44.6 °F 46% 29.95 in - WNW 11.2 mph - N/A   Clear
5:00 PM 64.4 °F 44.6 °F 49% 29.92 in - WNW 13.4 mph - N/A   Clear
5:30 PM 66.2 °F 42.8 °F 43% 29.92 in - WNW 8.9 mph - N/A   Clear
6:00 PM 66 °F 44 °F 33% 29.91 in 12 mi WNW 4.5 mph - -   Scattered Clouds
6:00 PM 64.4 °F 44.6 °F 49% 29.92 in - WNW 13.4 mph - N/A   Clear
6:30 PM 64.4 °F 44.6 °F 49% 29.92 in - West 11.2 mph - N/A   Clear
7:00 PM 62.6 °F 44.6 °F 52% 29.92 in - West 8.9 mph - N/A   Clear
7:30 PM 60.8 °F 46.4 °F 59% 29.92 in - WSW 8.9 mph - N/A   Clear
8:00 PM 60.8 °F 46.4 °F 59% 29.92 in - WSW 11.2 mph - N/A   Clear
8:30 PM 59.0 °F 46.4 °F 63% 29.89 in - West 11.2 mph - N/A   Clear
9:00 PM 59 °F 47 °F 55% 29.92 in 12 mi WNW 8.9 mph - -  
9:00 PM 57.2 °F 48.2 °F 72% 29.92 in - West 13.4 mph - N/A   Clear
9:30 PM 57.2 °F 46.4 °F 67% 29.92 in - West 11.2 mph - N/A   Clear
10:00 PM 55.4 °F 48.2 °F 77% 29.92 in - West 8.9 mph - N/A   Clear
10:30 PM 53.6 °F 46.4 °F 77% 29.92 in - West 6.7 mph - N/A   Clear
11:00 PM 53.6 °F 46.4 °F 77% 29.92 in - West 8.9 mph - N/A   Clear
11:30 PM 53.6 °F 46.4 °F 77% 29.92 in - West 11.2 mph - N/A   Clear